Location: Mladá Boleslav
(50.4134°N, 14.9084°E)
Time: 21:12:01
(UTC+02:00)

PCSat - Visible Passes

Search period start: 20 May 2024 00:00
Search period end: 30 May 2024 00:00
Orbit: 783 x 792 km, 67.1° (Epoch: 19 May)

Date Brightness Start Highest point End Pass type
(mag) Time Alt. Az. Time Alt. Az. Time Alt. Az.
20 May 9.7 22:01:00 10° NW 22:06:26 72° WSW 22:11:17 13° SSE visible
20 May 11.8 23:46:23 10° WNW 23:48:49 13° WSW 23:51:16 10° SW visible
21 May 9.6 21:29:19 10° NW 21:34:47 88° NE 21:40:13 10° SE visible
21 May 11.6 23:13:51 10° WNW 23:17:25 18° WSW 23:20:59 10° SSW visible
22 May 11.3 22:41:41 10° WNW 22:45:58 24° WSW 22:50:14 10° SSW visible
23 May 10.9 22:09:43 10° NW 22:14:29 32° WSW 22:19:14 10° S visible
24 May 10.5 21:37:51 10° NW 21:42:58 43° WSW 21:48:02 10° S visible
26 May 12.0 22:19:35 10° WNW 22:22:11 14° WSW 22:24:46 10° SW visible
27 May 11.8 21:47:06 10° WNW 21:50:46 19° WSW 21:54:25 10° SSW visible
